PROGRESS-MS 29

Last updated on Wed Jul 02 2025 00:02:11 GMT+0000 (Coordinated Universal Time)

1 62030U 24215A 25182.60262425 .00005250 00000+0 98795-4 0 9993 2 62030 51.6362 235.6237 0002078 320.5297 198.2707 15.50319249 34548
UTC large
Height (km)
Speed (km/s)
/
Latitude / Longitude
Inclination (degrees)
Orbital Period (minutes)
Azimuth
Elevation
Range (km)
Doppler Factor

Next 0 passes for location: London (51.5072 / 0.1276)

Sorry there are no passes over London.
PROGRESS-MS 29